Blair, NE

2:18 PM CDT on March 29, 2017 (GMT -0500)
Blair Municipal

Weather History for KBTA - October, 2011

Change the Weather History Date:

Wednesday, October 19, 2011

  Actual Average (KOMA) Record (KOMA)
Temperature  
Mean Temperature 38 °F -  
Max Temperature 46 °F 62 °F 87 °F (2003)
Min Temperature 30 °F 36 °F 13 °F (1972)
Degree Days  
Heating Degree Days 27    
Moisture  
Dew Point 25 °F    
Average Humidity 60    
Maximum Humidity 80    
Minimum Humidity 43    
Precipitation  
Precipitation 0.00 in - - ()
Sea Level Pressure  
Sea Level Pressure 30.08 in    
Wind  
Wind Speed 11 mph (NNW)    
Max Wind Speed 18 mph    
Max Gust Speed 25 mph    
Visibility 10 miles    
Events      
Averages and records for this station are not official NWS values.
T = Trace of Precipitation, MM = Missing Value Source: NWS Daily Summary

Daily Weather History Graph

Daily Weather History Graph

Search for Another Location

Airport or City:

Trip Planner

Search our weather history database for the weather conditions in past years. The results will help you decide how hot, cold, wet, or windy it might be!

Date:

Astronomy

Oct. 19, 2011 Rise Set
Actual Time 7:40 AM CDT 6:37 PM CDT
Civil Twilight 7:12 AM CDT 7:05 PM CDT
Nautical Twilight 6:40 AM CDT 7:37 PM CDT
Astronomical Twilight 6:08 AM CDT 8:09 PM CDT
Moon No Moon Rise 2:14 PM CDT (10/19)
Length of Visible Light 11h 53m
Length of Day
10h 57m
Waning Gibbous, 54% of the Moon is Illuminated
Oct 19
Waning Gibbous
Oct 19
Last Quarter
Oct 26
New
Nov 2
First Quarter
Nov 10
Full

Hourly Weather History & Observations

Time (CDT) Temp. Windchill Dew Point Humidity Pressure Visibility Wind Dir Wind Speed Gust Speed Precip Events Conditions
12:15 AM 39.2 °F 32.0 °F 26.6 °F 61% 30.07 in 10.0 mi North 11.5 mph - N/A   Clear
12:35 AM 37.4 °F 31.4 °F 24.8 °F 60% 30.07 in 10.0 mi NNW 8.1 mph - N/A   Clear
12:55 AM 37.4 °F 31.4 °F 24.8 °F 60% 30.06 in 10.0 mi NNW 8.1 mph - N/A   Clear
1:15 AM 35.6 °F 29.2 °F 24.8 °F 65% 30.06 in 10.0 mi North 8.1 mph - N/A   Clear
1:35 AM 35.6 °F 29.2 °F 24.8 °F 65% 30.07 in 10.0 mi NNW 8.1 mph - N/A   Clear
1:55 AM 35.6 °F 28.6 °F 24.8 °F 65% 30.07 in 10.0 mi NNW 9.2 mph - N/A   Clear
2:15 AM 35.6 °F 28.0 °F 24.8 °F 65% 30.07 in 10.0 mi NNW 10.4 mph - N/A   Clear
2:35 AM 35.6 °F 28.6 °F 24.8 °F 65% 30.07 in 10.0 mi NNW 9.2 mph - N/A   Clear
2:55 AM 35.6 °F 28.6 °F 26.6 °F 70% 30.07 in 10.0 mi NNW 9.2 mph - N/A   Clear
3:15 AM 35.6 °F 28.6 °F 26.6 °F 70% 30.07 in 10.0 mi NW 9.2 mph - N/A   Clear
3:35 AM 33.8 °F 25.8 °F 26.6 °F 75% 30.06 in 10.0 mi NNW 10.4 mph - N/A   Clear
3:55 AM 33.8 °F 28.6 °F 26.6 °F 75% 30.07 in 10.0 mi NW 5.8 mph - N/A   Clear
4:15 AM 32.0 °F 27.5 °F 26.6 °F 80% 30.07 in 10.0 mi NW 4.6 mph - N/A   Clear
5:15 AM 32.0 °F 25.6 °F 24.8 °F 75% 30.07 in 10.0 mi NW 6.9 mph - N/A   Clear
5:35 AM 32.0 °F 24.8 °F 24.8 °F 75% 30.07 in 10.0 mi NW 8.1 mph - N/A   Clear
5:55 AM 32.0 °F 26.4 °F 24.8 °F 75% 30.08 in 10.0 mi NW 5.8 mph - N/A   Clear
6:15 AM 30.2 °F 24.3 °F 24.8 °F 80% 30.09 in 10.0 mi WNW 5.8 mph - N/A   Clear
6:35 AM 30.2 °F 25.4 °F 24.8 °F 80% 30.09 in 10.0 mi NW 4.6 mph - N/A   Clear
6:55 AM 30.2 °F 23.4 °F 24.8 °F 80% 30.09 in 10.0 mi NW 6.9 mph - N/A   Clear
7:15 AM 30.2 °F 23.4 °F 24.8 °F 80% 30.09 in 10.0 mi NNW 6.9 mph - N/A   Clear
7:35 AM 32.0 °F 23.6 °F 24.8 °F 75% 30.09 in 10.0 mi NNW 10.4 mph - N/A   Clear
7:55 AM 32.0 °F 24.2 °F 24.8 °F 75% 30.09 in 10.0 mi NNW 9.2 mph - N/A   Clear
8:15 AM 32.0 °F 24.2 °F 24.8 °F 75% 30.10 in 10.0 mi NNW 9.2 mph - N/A   Clear
8:35 AM 32.0 °F 23.0 °F 24.8 °F 75% 30.10 in 10.0 mi NNW 11.5 mph - N/A   Clear
8:55 AM 33.8 °F 24.3 °F 24.8 °F 70% 30.11 in 10.0 mi NNW 13.8 mph 18.4 mph N/A   Clear
9:15 AM 33.8 °F 23.5 °F 24.8 °F 70% 30.11 in 10.0 mi North 16.1 mph 23.0 mph N/A   Clear
9:35 AM 35.6 °F 26.6 °F 24.8 °F 65% 30.11 in 10.0 mi NNW 13.8 mph 17.3 mph N/A   Clear
9:55 AM 35.6 °F 25.9 °F 26.6 °F 70% 30.12 in 10.0 mi NNW 16.1 mph 20.7 mph N/A   Clear
10:15 AM 37.4 °F 28.5 °F 26.6 °F 65% 30.12 in 10.0 mi NNW 15.0 mph 19.6 mph N/A   Clear
10:35 AM 39.2 °F 30.8 °F 26.6 °F 61% 30.12 in 10.0 mi NNW 15.0 mph 23.0 mph N/A   Clear
10:55 AM 39.2 °F 30.5 °F 26.6 °F 61% 30.12 in 10.0 mi NNW 16.1 mph 25.3 mph N/A   Clear
11:15 AM 41.0 °F 32.5 °F 26.6 °F 57% 30.12 in 10.0 mi NNW 17.3 mph - N/A   Clear
11:55 AM 42.8 °F 34.8 °F 26.6 °F 53% 30.11 in 10.0 mi North 17.3 mph 21.9 mph N/A   Scattered Clouds
12:15 PM 42.8 °F 34.5 °F 24.8 °F 49% 30.11 in 10.0 mi North 18.4 mph 24.2 mph N/A   Clear
12:35 PM 42.8 °F 34.5 °F 24.8 °F 49% 30.11 in 10.0 mi NNW 18.4 mph 25.3 mph N/A   Clear
12:55 PM 42.8 °F 34.8 °F 24.8 °F 49% 30.10 in 10.0 mi North 17.3 mph 24.2 mph N/A   Clear
1:15 PM 44.6 °F 38.1 °F 23.0 °F 43% 30.10 in 10.0 mi NNW 13.8 mph 23.0 mph N/A   Clear
1:35 PM 44.6 °F 37.2 °F 24.8 °F 46% 30.09 in 10.0 mi North 17.3 mph 25.3 mph N/A   Clear
1:55 PM 44.6 °F 36.9 °F 24.8 °F 46% 30.08 in 10.0 mi North 18.4 mph 23.0 mph N/A   Clear
2:15 PM 44.6 °F 38.1 °F 24.8 °F 46% 30.08 in 10.0 mi NNW 13.8 mph 23.0 mph N/A   Clear
2:35 PM 46.4 °F 39.5 °F 24.8 °F 43% 30.08 in 10.0 mi North 17.3 mph 25.3 mph N/A   Clear
2:55 PM 46.4 °F 40.1 °F 24.8 °F 43% 30.07 in 10.0 mi NNW 15.0 mph 21.9 mph N/A   Clear
3:15 PM 46.4 °F 40.7 °F 24.8 °F 43% 30.06 in 10.0 mi NW 12.7 mph 23.0 mph N/A   Clear
3:35 PM 46.4 °F 40.1 °F 24.8 °F 43% 30.06 in 10.0 mi NW 15.0 mph 20.7 mph N/A   Clear
3:55 PM 46.4 °F 40.7 °F 24.8 °F 43% 30.06 in 10.0 mi North 12.7 mph 18.4 mph N/A   Clear
4:15 PM 46.4 °F 40.7 °F 24.8 °F 43% 30.06 in 10.0 mi NNW 12.7 mph 21.9 mph N/A   Clear
4:35 PM 46.4 °F 39.8 °F 24.8 °F 43% 30.06 in 10.0 mi North 16.1 mph - N/A   Clear
4:55 PM 46.4 °F 41.1 °F 24.8 °F 43% 30.06 in 10.0 mi NNW 11.5 mph 20.7 mph N/A   Clear
5:15 PM 46.4 °F 40.4 °F 24.8 °F 43% 30.05 in 10.0 mi North 13.8 mph 17.3 mph N/A   Clear
5:35 PM 44.6 °F 38.1 °F 24.8 °F 46% 30.06 in 10.0 mi North 13.8 mph 20.7 mph N/A   Clear
5:55 PM 44.6 °F 40.2 °F 24.8 °F 46% 30.06 in 10.0 mi NNW 8.1 mph - N/A   Clear
6:15 PM 42.8 °F 35.8 °F 24.8 °F 49% 30.06 in 10.0 mi NNW 13.8 mph 18.4 mph N/A   Clear
6:35 PM 42.8 °F 38.0 °F 23.0 °F 46% 30.07 in 10.0 mi NNW 8.1 mph - N/A   Clear
6:55 PM 39.2 °F 33.6 °F 24.8 °F 56% 30.07 in 10.0 mi NNW 8.1 mph - N/A   Clear
7:15 PM 39.2 °F 34.2 °F 24.8 °F 56% 30.07 in 10.0 mi NNW 6.9 mph - N/A   Clear
7:35 PM 37.4 °F 32.1 °F 24.8 °F 60% 30.07 in 10.0 mi NNW 6.9 mph - N/A   Clear
7:55 PM 37.4 °F 32.1 °F 24.8 °F 60% 30.08 in 10.0 mi NNW 6.9 mph - N/A   Clear
8:35 PM 37.4 °F 31.4 °F 24.8 °F 60% 30.07 in 10.0 mi NNW 8.1 mph - N/A   Clear
8:55 PM 37.4 °F 31.4 °F 26.6 °F 65% 30.07 in 10.0 mi NNW 8.1 mph - N/A   Clear
9:15 PM 35.6 °F 29.9 °F 26.6 °F 70% 30.07 in 10.0 mi NNW 6.9 mph - N/A   Scattered Clouds
9:35 PM 35.6 °F 30.7 °F 26.6 °F 70% 30.08 in 10.0 mi NW 5.8 mph - N/A   Scattered Clouds
9:55 PM 33.8 °F 27.7 °F 26.6 °F 75% 30.07 in 10.0 mi NW 6.9 mph - N/A   Mostly Cloudy
10:15 PM 33.8 °F 27.7 °F 26.6 °F 75% 30.07 in 10.0 mi NW 6.9 mph - N/A   Overcast
10:35 PM 33.8 °F 29.6 °F 26.6 °F 75% 30.07 in 10.0 mi NW 4.6 mph - N/A   Mostly Cloudy
10:55 PM 33.8 °F 27.7 °F 28.4 °F 81% 30.06 in 10.0 mi NNW 6.9 mph - N/A   Scattered Clouds
11:15 PM 33.8 °F 27.0 °F 28.4 °F 81% 30.06 in 10.0 mi NNW 8.1 mph - N/A   Mostly Cloudy
11:35 PM 35.6 °F 29.2 °F 28.4 °F 75% 30.06 in 10.0 mi NNW 8.1 mph - N/A   Scattered Clouds
11:55 PM 35.6 °F 29.9 °F 28.4 °F 75% 30.05 in 10.0 mi NW 6.9 mph - N/A   Mostly Cloudy